DW8052 Weather Reports


time (UTC)temp
C
wind
direction
speed
KPH
gust
KPH
rain 1hr
cm
rain 24hr
cm
rain mn
cm
humidity
%
barometer
mb
20260508200209 14 278 9.7 11.3 0.00 0.00 0.00 61 1023.4
20260508195710 14 259 9.7 12.9 0.00 0.00 0.00 61 1023.2
20260508195209 14 258 9.7 11.3 0.00 0.00 0.00 61 1022.9
20260508194709 14 261 9.7 11.3 0.00 0.00 0.00 62 1023.1
20260508194210 14 269 9.7 11.3 0.00 0.00 0.00 62 1022.8
20260508193709 14 272 9.7 12.9 0.00 0.00 0.00 62 1022.9
20260508192710 14 283 11.3 14.5 0.00 0.00 0.00 62 1022.7
20260508192209 14 285 11.3 14.5 0.00 0.00 0.00 63 1022.9
20260508191710 14 281 11.3 12.9 0.00 0.00 0.00 63 1022.5
20260508191210 14 285 8.0 9.7 0.00 0.00 0.00 63 1022.5
20260508190709 14 277 8.0 11.3 0.00 0.00 0.00 63 1022.6
20260508190209 14 274 9.7 11.3 0.00 0.00 0.00 63 1022.4
20260508185209 14 282 9.7 12.9 0.00 0.00 0.00 62 1022.4
20260508184709 14 279 9.7 14.5 0.00 0.00 0.00 62 1022.4
20260508184209 14 269 8.0 12.9 0.00 0.00 0.00 63 1022.4
20260508183709 14 248 9.7 14.5 0.00 0.00 0.00 63 1022.4
20260508183209 14 251 11.3 16.1 0.00 0.00 0.00 63 1022.4
20260508182709 14 251 14.5 19.3 0.00 0.00 0.00 63 1022.2
20260508182209 14 253 11.3 16.1 0.00 0.00 0.00 63 1022.1
20260508181709 14 242 11.3 16.1 0.00 0.00 0.00 63 1022.2
20260508181209 14 249 11.3 19.3 0.00 0.00 0.00 63 1022.1
20260508180209 14 244 11.3 16.1 0.00 0.00 0.00 63 1022.0
20260508175709 14 265 9.7 19.3 0.00 0.00 0.00 63 1022.4
20260508175209 14 252 16.1 19.3 0.00 0.00 0.00 62 1022.0
20260508174709 14 248 16.1 20.9 0.00 0.00 0.00 63 1021.9
20260508174209 14 251 17.7 20.9 0.00 0.00 0.00 63 1022.0
20260508173709 14 252 16.1 20.9 0.00 0.00 0.00 63 1021.9
20260508173209 14 245 16.1 20.9 0.00 0.00 0.00 63 1021.9
20260508172209 14 243 14.5 22.5 0.00 0.00 0.00 63 1021.8
20260508171708 14 247 14.5 19.3 0.00 0.00 0.00 63 1022.1
20260508171209 14 245 12.9 19.3 0.00 0.00 0.00 63 1022.2
20260508170709 14 252 14.5 20.9 0.00 0.00 0.00 63 1022.1
20260508170209 14 244 19.3 25.7 0.00 0.00 0.00 63 1022.1
20260508165709 14 246 19.3 24.1 0.00 0.00 0.00 63 1021.9
20260508165209 14 248 16.1 27.4 0.00 0.00 0.00 63 1022.1
20260508164709 14 252 12.9 19.3 0.00 0.00 0.00 63 1021.9
20260508164209 14 254 14.5 19.3 0.00 0.00 0.00 63 1022.1
20260508162709 14 259 16.1 22.5 0.00 0.00 0.00 62 1022.0
20260508162209 14 268 14.5 20.9 0.00 0.00 0.00 62 1022.0
20260508161209 15 260 9.7 14.5 0.00 0.00 0.00 62 1022.0
20260508160209 15 259 11.3 14.5 0.00 0.00 0.00 61 1022.1
20260508155709 15 262 11.3 16.1 0.00 0.00 0.00 61 1021.9
20260508155209 15 253 12.9 14.5 0.00 0.00 0.00 61 1022.0
20260508154709 15 263 9.7 14.5 0.00 0.00 0.00 61 1022.0
20260508153709 15 246 11.3 16.1 0.00 0.00 0.00 61 1022.0
20260508153209 15 245 12.9 19.3 0.00 0.00 0.00 61 1022.3
20260508152208 15 251 11.3 19.3 0.00 0.00 0.00 60 1021.9
20260508151709 15 243 12.9 19.3 0.00 0.00 0.00 60 1022.0
20260508151209 15 246 14.5 19.3 0.00 0.00 0.00 60 1022.0
20260508150709 15 241 14.5 22.5 0.00 0.00 0.00 60 1022.0
20260508150208 15 247 16.1 22.5 0.00 0.00 0.00 60 1022.2
20260508144708 15 243 17.7 25.7 0.00 0.00 0.00 59 1021.8
20260508143709 15 238 20.9 32.2 0.00 0.00 0.00 59 1021.8
20260508143209 15 239 27.4 32.2 0.00 0.00 0.00 58 1021.8
20260508142709 15 247 20.9 25.7 0.00 0.00 0.00 58 1021.6
20260508142208 15 241 20.9 29.0 0.00 0.00 0.00 59 1021.8
20260508141709 15 242 22.5 32.2 0.00 0.00 0.00 58 1021.9
20260508141208 15 246 24.1 32.2 0.00 0.00 0.00 58 1021.6
20260508140709 15 243 25.7 29.0 0.00 0.00 0.00 58 1021.8
20260508140209 15 246 24.1 29.0 0.00 0.00 0.00 58 1021.5
20260508135208 15 243 22.5 29.0 0.00 0.00 0.00 58 1021.7
20260508134709 15 249 20.9 32.2 0.00 0.00 0.00 58 1021.8
20260508134209 15 246 22.5 32.2 0.00 0.00 0.00 58 1021.7
20260508133709 15 242 22.5 29.0 0.00 0.00 0.00 58 1021.7
20260508133208 15 255 19.3 25.7 0.00 0.00 0.00 58 1021.5
20260508132708 15 250 25.7 35.4 0.00 0.00 0.00 58 1021.6
20260508132208 15 247 20.9 32.2 0.00 0.00 0.00 58 1021.5
20260508131709 15 244 22.5 32.2 0.00 0.00 0.00 57 1021.6
20260508131209 15 242 25.7 32.2 0.00 0.00 0.00 57 1021.5
20260508130708 15 238 24.1 32.2 0.00 0.00 0.00 57 1021.6
20260508130209 15 250 22.5 32.2 0.00 0.00 0.00 57 1021.4
20260508125208 15 251 22.5 32.2 0.00 0.00 0.00 57 1021.4
20260508124709 15 260 22.5 32.2 0.00 0.00 0.00 57 1021.5
20260508124208 15 252 22.5 32.2 0.00 0.00 0.00 57 1021.5
20260508123708 15 248 27.4 32.2 0.00 0.00 0.00 56 1021.6
20260508123208 15 251 22.5 32.2 0.00 0.00 0.00 56 1021.5
20260508121709 15 241 20.9 33.8 0.00 0.00 0.00 56 1021.5
20260508121208 15 240 20.9 37.0 0.00 0.00 0.00 56 1021.5
20260508120709 15 252 25.7 35.4 0.00 0.00 0.00 55 1021.6
20260508120208 15 261 22.5 38.6 0.00 0.00 0.00 55 1021.5
20260508115709 15 252 24.1 38.6 0.00 0.00 0.00 55 1021.4
20260508115208 15 254 24.1 37.0 0.00 0.00 0.00 55 1021.5
20260508114208 15 252 24.1 37.0 0.00 0.00 0.00 55 1021.3
20260508112708 15 256 32.2 41.8 0.00 0.00 0.00 55 1021.2
20260508112209 15 256 27.4 41.8 0.00 0.00 0.00 55 1021.2
20260508111709 15 256 32.2 45.1 0.00 0.00 0.00 55 1021.0
20260508111209 15 258 32.2 46.7 0.00 0.00 0.00 55 1021.1
20260508110708 15 257 27.4 40.2 0.00 0.00 0.00 55 1021.0
20260508110208 15 254 33.8 45.1 0.00 0.00 0.00 55 1021.0
20260508105708 15 249 29.0 45.1 0.00 0.00 0.00 55 1021.0
20260508105208 15 252 35.4 46.7 0.00 0.00 0.00 55 1020.8
20260508104709 15 251 29.0 41.8 0.00 0.00 0.00 55 1020.8
20260508104209 15 260 29.0 45.1 0.00 0.00 0.00 54 1020.7
20260508103708 15 255 33.8 46.7 0.00 0.00 0.00 54 1020.6
20260508103208 15 257 33.8 41.8 0.00 0.00 0.00 54 1020.7
20260508102708 15 259 32.2 45.1 0.00 0.00 0.00 54 1020.6
20260508102208 15 246 33.8 45.1 0.00 0.00 0.00 54 1020.6
20260508101708 15 253 29.0 51.5 0.00 0.00 0.00 54 1020.5
20260508101208 15 256 38.6 48.3 0.00 0.00 0.00 54 1020.5
20260508100709 15 246 35.4 48.3 0.00 0.00 0.00 54 1020.6
20260508100208 15 261 32.2 46.7 0.00 0.00 0.00 54 1020.4
20260508095708 15 261 35.4 49.9 0.00 0.00 0.00 54 1020.1
20260508095209 15 260 33.8 46.7 0.00 0.00 0.00 54 1020.3
20260508094708 15 257 32.2 48.3 0.00 0.00 0.00 54 1020.2
20260508093708 15 253 33.8 45.1 0.00 0.00 0.00 54 1020.1
20260508093208 15 256 33.8 45.1 0.00 0.00 0.00 54 1020.2
20260508092708 15 256 29.0 46.7 0.00 0.00 0.00 54 1020.1
20260508092208 16 257 35.4 46.7 0.00 0.00 0.00 54 1019.9
20260508091709 16 256 33.8 48.3 0.00 0.00 0.00 54 1019.9
20260508091208 16 262 35.4 53.1 0.00 0.00 0.00 53 1019.6
20260508090708 16 258 35.4 56.3 0.00 0.00 0.00 53 1019.8
20260508090208 16 251 33.8 41.8 0.00 0.00 0.00 53 1019.8
20260508085708 16 256 29.0 48.3 0.00 0.00 0.00 53 1019.5
20260508085208 16 258 30.6 46.7 0.00 0.00 0.00 53 1019.4
20260508084708 16 258 27.4 41.8 0.00 0.00 0.00 52 1019.7
20260508083708 16 255 32.2 41.8 0.00 0.00 0.00 51 1019.3
20260508083209 16 258 32.2 41.8 0.00 0.00 0.00 51 1019.3
20260508082708 16 253 30.6 46.7 0.00 0.00 0.00 51 1019.2
20260508082208 16 256 33.8 41.8 0.00 0.00 0.00 50 1019.2
20260508081708 16 254 35.4 51.5 0.00 0.00 0.00 50 1019.0
20260508081208 16 253 40.2 56.3 0.00 0.00 0.00 50 1019.0
20260508080208 16 256 27.4 41.8 0.00 0.00 0.00 50 1018.6
20260508075708 16 260 24.1 41.8 0.00 0.00 0.00 50 1018.7
20260508075208 16 253 29.0 45.1 0.00 0.00 0.00 49 1018.4
20260508074708 16 255 35.4 41.8 0.00 0.00 0.00 48 1018.5
20260508074209 17 262 25.7 38.6 0.00 0.00 0.00 49 1018.3
20260508073708 17 258 27.4 41.8 0.00 0.00 0.00 48 1018.3
20260508073208 17 263 22.5 32.2 0.00 0.00 0.00 48 1018.1
20260508072708 17 261 30.6 41.8 0.00 0.00 0.00 47 1018.1
20260508072209 17 251 25.7 35.4 0.00 0.00 0.00 47 1018.2
20260508071708 17 256 32.2 41.8 0.00 0.00 0.00 46 1018.1
20260508071208 17 259 27.4 38.6 0.00 0.00 0.00 45 1018.2
20260508070708 17 256 27.4 40.2 0.00 0.00 0.00 45 1017.9
20260508070208 17 259 22.5 37.0 0.00 0.00 0.00 45 1017.8
20260508065208 18 259 22.5 32.2 0.00 0.00 0.00 44 1017.9
20260508064708 18 252 27.4 37.0 0.00 0.00 0.00 43 1017.5
20260508064208 18 269 27.4 35.4 0.00 0.00 0.00 43 1017.4
20260508063709 18 250 25.7 40.2 0.00 0.00 0.00 42 1017.2
20260508063208 18 249 33.8 41.8 0.00 0.00 0.00 41 1017.1
20260508062708 18 254 33.8 53.1 0.00 0.00 0.00 40 1017.0
20260508062208 18 241 32.2 41.8 0.00 0.00 0.00 40 1016.9
20260508061708 18 244 29.0 38.6 0.00 0.00 0.00 40 1016.9
20260508061208 19 249 30.6 41.8 0.00 0.00 0.00 41 1016.7
20260508060707 19 243 27.4 41.8 0.00 0.00 0.00 40 1016.5
20260508055708 19 243 37.0 46.7 0.00 0.00 0.00 37 1016.4
20260508055207 19 239 22.5 29.0 0.00 0.00 0.00 39 1016.5
20260508054207 19 235 33.8 41.8 0.00 0.00 0.00 38 1016.3
20260508053707 19 249 40.2 46.7 0.00 0.00 0.00 37 1016.2
20260508053208 19 238 37.0 48.3 0.00 0.00 0.00 38 1016.2
20260508052208 19 269 22.5 32.2 0.00 0.00 0.00 38 1016.1
20260508051707 19 264 20.9 35.4 0.00 0.00 0.00 38 1016.1
20260508051208 19 269 29.0 38.6 0.00 0.00 0.00 38 1016.1
20260508050708 19 276 25.7 35.4 0.00 0.00 0.00 38 1016.1
20260508050207 19 263 12.9 32.2 0.00 0.00 0.00 38 1015.9
20260508045708 20 261 27.4 33.8 0.00 0.00 0.00 38 1016.2
20260508044707 20 260 19.3 32.2 0.00 0.00 0.00 38 1015.9
20260508044208 20 246 19.3 32.2 0.00 0.00 0.00 38 1015.9
20260508043708 19 251 20.9 46.7 0.00 0.00 0.00 38 1015.8
20260508043207 19 249 29.0 41.8 0.00 0.00 0.00 37 1015.6
20260508042708 19 256 33.8 45.1 0.00 0.00 0.00 37 1015.5
20260508042208 19 259 30.6 40.2 0.00 0.00 0.00 37 1015.5
20260508041708 20 253 25.7 37.0 0.00 0.00 0.00 37 1015.6
20260508041208 19 240 29.0 41.8 0.00 0.00 0.00 37 1015.6
20260508040708 19 264 29.0 40.2 0.00 0.00 0.00 37 1015.7
20260508040208 19 260 25.7 41.8 0.00 0.00 0.00 37 1015.7
20260508035708 19 273 24.1 41.8 0.00 0.00 0.00 37 1015.5
20260508035208 20 260 32.2 41.8 0.00 0.00 0.00 36 1015.7
20260508034708 20 262 20.9 41.8 0.00 0.00 0.00 37 1015.5
20260508034207 20 268 29.0 41.8 0.00 0.00 0.00 36 1015.6
20260508033208 19 270 27.4 37.0 0.00 0.00 0.00 37 1015.8
20260508032708 19 250 30.6 45.1 0.00 0.00 0.00 36 1015.7
20260508032208 19 262 29.0 45.1 0.00 0.00 0.00 37 1015.7
20260508031708 19 262 19.3 37.0 0.00 0.00 0.00 38 1015.8
20260508031207 18 270 30.6 45.1 0.00 0.00 0.00 37 1015.8
20260508030708 18 278 29.0 38.6 0.00 0.00 0.00 37 1015.9
20260508030207 18 263 27.4 41.8 0.00 0.00 0.00 37 1015.8
20260508024707 18 258 30.6 49.9 0.00 0.00 0.00 38 1016.0
20260508024208 18 262 37.0 46.7 0.00 0.00 0.00 38 1016.0
20260508023708 18 279 25.7 38.6 0.00 0.00 0.00 38 1016.0
20260508023208 18 270 22.5 45.1 0.00 0.00 0.00 38 1016.1
20260508022708 18 263 29.0 46.7 0.00 0.00 0.00 38 1016.0
20260508022207 18 258 20.9 38.6 0.00 0.00 0.00 39 1016.1
20260508021707 18 262 24.1 41.8 0.00 0.00 0.00 38 1016.1
20260508021208 18 248 32.2 41.8 0.00 0.00 0.00 38 1016.4
20260508020208 18 273 29.0 41.8 0.00 0.00 0.00 39 1016.6
20260508015707 18 273 29.0 41.8 0.00 0.00 0.00 39 1016.4
20260508015207 18 252 25.7 41.8 0.00 0.00 0.00 40 1016.6
20260508014707 18 269 25.7 37.0 0.00 0.00 0.00 40 1016.8
20260508014208 18 264 27.4 37.0 0.00 0.00 0.00 40 1016.6
20260508013707 18 258 33.8 46.7 0.00 0.00 0.00 40 1016.6
20260508013207 18 266 25.7 37.0 0.00 0.00 0.00 41 1016.8
20260508012708 17 277 25.7 41.8 0.00 0.00 0.00 41 1016.8
20260508012207 17 265 38.6 46.7 0.00 0.00 0.00 40 1016.9
20260508010708 17 263 20.9 35.4 0.00 0.00 0.00 42 1017.2
20260508010208 17 264 33.8 45.1 0.00 0.00 0.00 41 1017.1
20260508005707 17 249 27.4 46.7 0.00 0.00 0.00 42 1017.1
20260508005207 17 261 38.6 45.1 0.00 0.00 0.00 42 1017.2
20260508004207 16 273 35.4 49.9 0.00 0.00 0.00 43 1017.5
20260508003708 16 283 35.4 53.1 0.00 0.00 0.00 43 1017.4
20260508003207 16 272 35.4 48.3 0.00 0.00 0.00 44 1017.4
20260508002707 16 269 33.8 49.9 0.00 0.00 0.00 45 1017.5
20260508002207 16 278 20.9 38.6 0.00 0.00 0.00 46 1017.5
20260508001708 16 271 32.2 41.8 0.00 0.00 0.00 45 1017.4
20260508000707 16 271 32.2 41.8 0.00 0.00 0.00 47 1017.8
20260508000207 15 275 33.8 46.7 0.00 0.00 0.00 47 1017.7
20260507235708 15 283 27.4 37.0 0.00 0.00 0.00 47 1017.7
20260507235207 15 276 22.5 32.2 0.00 0.00 0.00 48 1017.7
20260507233207 14 273 33.8 41.8 0.00 0.00 0.00 50 1017.8
20260507232707 14 279 27.4 40.2 0.00 0.00 0.00 50 1017.9
20260507232207 14 275 35.4 46.7 0.00 0.00 0.00 49 1017.8
20260507231707 14 271 29.0 46.7 0.00 0.00 0.00 50 1017.8
20260507231207 14 281 24.1 41.8 0.00 0.00 0.00 51 1017.9
20260507230707 13 279 25.7 49.9 0.00 0.00 0.00 51 1017.8
20260507230207 13 271 38.6 48.3 0.00 0.00 0.00 51 1017.8
20260507225707 13 270 33.8 48.3 0.00 0.00 0.00 51 1017.9
20260507225208 13 268 30.6 46.7 0.00 0.00 0.00 52 1017.7
20260507224207 13 282 35.4 49.9 0.00 0.00 0.00 53 1017.6
20260507223707 12 279 29.0 46.7 0.00 0.00 0.00 53 1017.7
20260507222708 12 287 32.2 41.8 0.00 0.00 0.00 54 1017.9
20260507222208 12 276 29.0 41.8 0.00 0.00 0.00 55 1017.9
20260507221707 12 281 25.7 40.2 0.00 0.00 0.00 55 1017.7
20260507221207 12 282 27.4 40.2 0.00 0.00 0.00 55 1017.6
20260507220207 11 282 25.7 33.8 0.00 0.00 0.00 55 1017.7
20260507215707 11 273 29.0 41.8 0.00 0.00 0.00 56 1017.6
20260507214707 11 285 27.4 38.6 0.00 0.00 0.00 56 1017.7
20260507213708 11 276 29.0 38.6 0.00 0.00 0.00 56 1017.6
20260507213207 11 279 27.4 37.0 0.00 0.00 0.00 56 1017.5
20260507212707 11 281 25.7 37.0 0.00 0.00 0.00 56 1017.5
20260507211707 11 285 32.2 41.8 0.00 0.00 0.00 56 1017.2
20260507211207 11 275 38.6 48.3 0.00 0.00 0.00 56 1017.3
20260507210707 11 282 32.2 41.8 0.00 0.00 0.00 57 1017.1
20260507205707 10 273 30.6 38.6 0.00 0.00 0.00 58 1017.4
20260507205207 10 279 32.2 38.6 0.00 0.00 0.00 58 1017.3
20260507204707 10 281 33.8 41.8 0.00 0.00 0.00 59 1017.2
20260507204207 10 280 25.7 38.6 0.00 0.00 0.00 58 1017.2
20260507203707 10 281 25.7 35.4 0.00 0.00 0.00 58 1017.3
20260507203207 10 284 29.0 35.4 0.00 0.00 0.00 57 1017.4
20260507202706 10 282 29.0 37.0 0.00 0.00 0.00 58 1017.5
20260507202207 10 283 27.4 37.0 0.00 0.00 0.00 57 1017.4
20260507201207 10 282 22.5 35.4 0.00 0.00 0.00 58 1017.5
20260507200707 10 281 24.1 33.8 0.00 0.00 0.00 57 1017.4